Regional Weather Roundup
Issued by NWS State College, PA

Home | Current Version | Previous Version | Text Only | Print | Product List | Glossary On
Versions: 1 2 3 4 5 6 7 8 9 10 11 12 13 14 15 16 17 18 19 20 21 22 23 24 25 26 27 28 29 30 31 32 33 34 35 36 37 38 39 40 41 42 43 44 45 46 47 48 49 50
000
ASUS41 KCTP 250803
RWRCTP

REGIONAL WEATHER ROUNDUP
NATIONAL WEATHER SERVICE STATE COLLEGE PA
300 AM EST THU DEC 25 2014

Note: "fair" indicates few or no clouds below 12,000 feet with no
significant weather and/or obstructions to visibility.

* = STATION THAT DOES NOT REPORT PRECIPITATION /E.G. RAIN...SNOW...ETC/
    THUNDER OR FOG.

PAZ002>004-007>009-013>016-020>023-029>032-250900-
WESTERN PENNSYLVANIA

CITY           SKY/WX    TMP DP  RH WIND       PRES   REMARKS
ERIE           CLOUDY    42  31  64 SW12G23   29.59R
MEADVILLE      CLOUDY    38  32  79 SW15G25   29.60R
FRANKLIN*      CLOUDY    37  32  81 SW12G22   29.63R
NEW CASTLE       N/A     37  34  89 SW10      29.68R
BEAVER COUNTY  NOT AVBL
BUTLER*        CLOUDY    39  32  75 SW17G24   29.69R
PITTSBURGH INT MOCLDY    39  35  86 W9        29.69R
PITTSBURGH     CLOUDY    40  31  70 W16G28    29.68R
INDIANA*       CLOUDY    41  37  87 W18       29.70R
LATROBE        LGT RAIN  39  37  93 SW15G23   29.71R
WASHINGTON CO* NOT AVBL
$$

PAZ004>006-010>012-017>019-024>028-033>037-041-042-045-046-049>053-250900-
CENTRAL PENNSYLVANIA

CITY           SKY/WX    TMP DP  RH WIND       PRES   REMARKS
BRADFORD       CLOUDY    38  32  79 SW9G23    29.56R
DUBOIS         CLOUDY    38  35  89 SW15      29.61R
CLEARFIELD     LGT RAIN  41  36  82 SW15G28   29.62R
JOHNSTOWN      CLOUDY    38  33  82 W16G25    29.63R
ALTOONA        CLOUDY    42  34  73 SW12      29.67R
STATE COLLEGE  CLOUDY    43  35  73 W14       29.63R
WILLIAMSPORT   LGT RAIN  48  41  76 W18G26    29.61R
SELINSGROVE    LGT RAIN  48  41  76 W8G18     29.63R
FT INDIANTOWN  RAIN      50  50 100 W10G18    29.63R
CAPITAL CITY   LGT RAIN  50  45  83 W12G20    29.64R
HARRISBURG     LGT RAIN  49  44  83 W14       29.63R
YORK           LGT RAIN  51  45  79 W10       29.65R
$$

PAZ038>040-043-044-047-048-054-055-060>062-067>071-250900-
EASTERN PENNSYLVANIA

CITY           SKY/WX    TMP DP  RH WIND       PRES   REMARKS
SCRANTON       LGT RAIN  53  44  71 SW17G33   29.59R
MOUNT POCONO   CLOUDY    49  45  86 W20G28    29.55R
ALLENTOWN      CLOUDY    57  49  74 W10G20    29.56S
QUAKERTOWN*    NOT AVBL
READING        CLOUDY    55  50  83 W7        29.60R
LANCASTER      LGT RAIN  53  48  83 W8        29.61S
COATESVILLE    CLOUDY    55  54  94 NW15      29.59F
POTTSTOWN      CLOUDY    57  51  80 W8        29.60R
BLUE BELL      CLOUDY    61  54  77 W8        29.57S
DOYLESTOWN     CLOUDY    58  55  90 W10G28    29.54R
WILLOW GROVE   NOT AVBL
NORTH PHILA    LGT RAIN  65  57  75 W18G29    29.57R
PHILADELPHIA   CLOUDY    62  55  77 W22G30    29.58R
$$


USA.gov is the U.S. government's official web portal to all federal, state and local government web resources and services.